x

8651370 - Duck Pier, Nc (dukn7) Weather Station

1:54pm - Thu 21st Sep 2017 All times are EDT. -4 hours from GMT.

  • Wind
    8mph, 9mph gusts
  • Sea Temp 76°f
  • Air Temp 75°f
  • Sea Pressure 1015.9mb
  •  8651370 - Duck Pier, Nc
  •  8651370 - Duck Pier, Nc

More Historic Weather Station data

Upgrade to MSW Pro to gain access to the past 30 days of data for over 8000 Wavebouys and Weather Stations around the globe.

Join

Comparision Forecast

View Surf forecast
   
Thu 09/21 1:54pm 8 9 mph 1015.9mb 76f 75f
1:48pm 8 9 mph 1016mb 76f 75f
1:42pm 8 9 mph 1016.1mb 76f 75f
1:36pm 9 10 mph 1016.1mb 76f 75f
1:30pm 9 10 mph 1016.1mb 76f 75f
1:24pm 10 11 mph 1016.1mb 76f 75f
1:18pm 10 11 mph 1016.2mb 75f 75f
12:48pm 8 9 mph 1016.3mb 75f 75f
12:42pm 7 10 mph 1016.3mb 75f 75f
12:36pm 9 10 mph 1016.3mb 75f 75f
12:30pm 9 10 mph 1016.3mb 74f 75f
12:24pm 7 10 mph 1016.3mb 75f 75f
12:18pm 7 9 mph 1016.4mb 75f 75f
12:12pm 9 9 mph 1016.4mb 75f 75f
12:06pm 8 9 mph 1016.4mb 75f 75f
12:00pm 8 9 mph 1016.4mb 75f 75f
11:54am 8 9 mph 1016.4mb 75f 75f
11:48am 8 9 mph 1016.4mb 75f 75f
11:42am 8 10 mph 1016.4mb 75f 75f
11:36am 8 10 mph 1016.4mb 75f 75f
11:30am 9 10 mph 1016.5mb 75f 75f
11:24am 8 9 mph 1016.5mb 75f 75f
11:18am 9 10 mph 1016.6mb 75f 75f
11:12am 9 10 mph 1016.6mb 75f 75f
11:06am 9 10 mph 1016.6mb 75f 75f
11:00am 9 9 mph 1016.6mb 75f 75f
10:54am 8 9 mph 1016.6mb 75f 75f
10:48am 8 9 mph 1016.6mb 75f 75f
10:42am 8 8 mph 1016.6mb 75f 75f
10:36am 8 10 mph 1016.7mb 75f 75f
10:30am 9 10 mph 1016.7mb 75f 75f
10:24am 9 11 mph 1016.7mb 75f 76f
10:18am 10 11 mph 1016.7mb 75f 75f
10:12am 7 9 mph 1016.7mb 75f 75f
10:06am 7 7 mph 1016.7mb 75f 76f
10:00am 5 6 mph 1016.6mb 75f 76f
9:54am 6 6 mph 1016.6mb 75f 75f
9:48am 5 7 mph 1016.6mb 75f 75f
9:42am 6 7 mph 1016.6mb 75f 75f
9:36am 6 7 mph 1016.6mb 75f 75f
9:30am 7 8 mph 1016.6mb 75f 75f
9:24am 7 8 mph 1016.6mb 75f 75f
9:18am 6 9 mph 1016.5mb 75f 75f
9:12am 8 9 mph 1016.5mb 75f 75f
9:06am 9 10 mph 1016.5mb 75f 74f
9:00am 9 11 mph 1016.4mb 75f 74f
8:48am 7 9 mph 1016.2mb 75f 74f
8:42am 7 11 mph 1016.2mb 75f 74f
8:36am 8 10 mph 1016.2mb 75f 74f
8:30am 7 9 mph 1016.2mb 75f 74f
8:24am 7 10 mph 1016.1mb 75f 74f
8:18am 6 9 mph 1016mb 75f 73f
8:12am 7 9 mph 1016mb 75f 73f
8:06am 8 10 mph 1015.9mb 75f 73f
8:00am 8 10 mph 1015.9mb 75f 73f
7:54am 6 9 mph 1015.9mb 75f 73f
7:48am 7 8 mph 1015.8mb 75f 73f
7:42am 6 9 mph 1015.8mb 75f 73f
7:36am 7 10 mph 1015.7mb 75f 73f
7:30am 8 11 mph 1015.7mb 75f 73f
7:24am 8 11 mph 1015.5mb 75f 73f
7:18am 8 9 mph 1015.5mb 75f 73f
7:12am 8 9 mph 1015.5mb 75f 73f
7:06am 9 10 mph 1015.4mb 75f 73f
7:00am 7 8 mph 1015.4mb 75f 73f
6:54am 7 9 mph 1015.3mb 75f 73f
6:48am 9 9 mph 1015.3mb 75f 73f
6:42am 8 8 mph 1015.2mb 75f 73f
6:36am 7 8 mph 1015.1mb 75f 73f
6:30am 8 9 mph 1015mb 75f 73f
6:24am 7 8 mph 1015mb 75f 74f
6:18am 8 9 mph 1015mb 75f 74f
6:12am 8 9 mph 1014.9mb 75f 74f
6:06am 8 9 mph 1014.8mb 75f 74f
6:00am 7 8 mph 1014.7mb 75f 74f
5:54am 7 8 mph 1014.7mb 75f 74f
5:48am 7 7 mph 1014.6mb 75f 74f
5:42am 6 7 mph 1014.6mb 75f 74f
5:36am 6 7 mph 1014.6mb 75f 73f
5:30am 6 7 mph 1014.6mb 75f 74f
5:24am 7 7 mph 1014.6mb 75f 74f
5:18am 7 7 mph 1014.6mb 75f 74f
5:12am 6 7 mph 1014.6mb 75f 74f
5:06am 7 9 mph 1014.5mb 75f 74f
5:00am 8 9 mph 1014.5mb 75f 74f
4:54am 8 9 mph 1014.5mb 75f 74f
4:48am 7 8 mph 1014.4mb 75f 74f
4:42am 7 8 mph 1014.4mb 75f 74f
4:36am 7 8 mph 1014.4mb 75f 74f
4:30am 6 7 mph 1014.4mb 75f 74f
4:24am 6 7 mph 1014.4mb 75f 74f
4:18am 6 7 mph 1014.4mb 75f 74f
4:12am 6 7 mph 1014.3mb 75f 74f
4:06am 6 6 mph 1014.3mb 75f 74f
4:00am 6 6 mph 1014.4mb 75f 74f
3:54am 6 6 mph 1014.4mb 75f 74f
3:48am 6 7 mph 1014.4mb 75f 74f
3:42am 6 7 mph 1014.4mb 75f 74f
3:36am 6 7 mph 1014.4mb 75f 74f
3:30am 7 7 mph 1014.4mb 75f 74f
3:24am 6 7 mph 1014.4mb 75f 74f
3:18am 6 7 mph 1014.5mb 75f 74f
3:12am 6 7 mph 1014.5mb 75f 74f
3:06am 7 7 mph 1014.6mb 75f 74f
3:00am 7 7 mph 1014.6mb 75f 74f
2:54am 6 6 mph 1014.5mb 75f 75f
2:48am 6 7 mph 1014.5mb 75f 75f
2:42am 6 7 mph 1014.5mb 75f 75f
2:36am 6 7 mph 1014.5mb 75f 75f
2:30am 6 7 mph 1014.6mb 75f 75f
2:24am 6 7 mph 1014.7mb 75f 75f
2:18am 6 7 mph 1014.7mb 75f 75f
2:12am 6 7 mph 1014.6mb 75f 75f
2:06am 5 7 mph 1014.6mb 75f 75f
2:00am 6 7 mph 1014.7mb 75f 75f
1:54am 6 7 mph 1014.7mb 75f 75f
1:48am 6 6 mph 1014.8mb 75f 75f
1:42am 6 6 mph 1014.9mb 75f 75f
1:36am 6 6 mph 1014.9mb 75f 75f
1:30am 5 5 mph 1014.9mb 75f 75f
1:24am 3 5 mph 1014.9mb 75f 75f
1:18am 3 3 mph 1014.9mb 75f 75f
1:12am 5 6 mph 1014.8mb 75f 76f
1:06am 6 6 mph 1014.7mb 75f 76f
1:00am 6 6 mph 1014.7mb 75f 76f
12:54am 6 7 mph 1014.6mb 75f 76f
12:48am 6 6 mph 1014.7mb 75f 76f
12:42am 5 6 mph 1014.8mb 75f 76f
12:36am 6 6 mph 1014.9mb 75f 75f
12:30am 6 6 mph 1014.9mb 75f 75f
12:24am 5 5 mph 1014.9mb 75f 76f
12:18am 5 6 mph 1015mb 75f 75f
12:12am 6 6 mph 1014.9mb 75f 75f
12:06am 7 7 mph 1014.9mb 75f 76f
12:00am 6 6 mph 1014.9mb 75f 76f
Wed 09/20 11:54pm 6 6 mph 1015mb 75f 76f
11:48pm 5 5 mph 1015mb 75f 76f
11:42pm 5 6 mph 1014.9mb 75f 76f
11:36pm 6 6 mph 1015mb 75f 75f
11:30pm 6 7 mph 1015mb 75f 76f
11:24pm 6 7 mph 1015mb 75f 76f
11:18pm 6 6 mph 1015mb 75f 76f
11:12pm 5 6 mph 1015mb 75f 76f
11:06pm 5 5 mph 1015mb 75f 76f
11:00pm 5 5 mph 1015mb 75f 76f
10:54pm 5 5 mph 1015mb 75f 76f
10:48pm 3 3 mph 1015mb 75f 76f
10:42pm 3 3 mph 1015mb 75f 76f
10:36pm 5 6 mph 1015mb 75f 76f
10:30pm 6 6 mph 1015mb 75f 76f
10:24pm 6 6 mph 1015.1mb 75f 77f
10:18pm 6 6 mph 1015mb 75f 77f
10:12pm 6 6 mph 1015mb 75f 76f
10:06pm 5 6 mph 1015mb 75f 76f
10:00pm 6 6 mph 1014.9mb 75f 76f
9:54pm 6 6 mph 1014.8mb 75f 76f
9:48pm 6 6 mph 1014.7mb 75f 76f
9:42pm 5 6 mph 1014.7mb 75f 77f
9:36pm 6 6 mph 1014.7mb 75f 77f
9:30pm 6 6 mph 1014.6mb 75f 77f
9:24pm 6 7 mph 1014.5mb 75f 77f
9:18pm 5 6 mph 1014.4mb 75f 77f
9:12pm 6 7 mph 1014.4mb 75f 78f
9:06pm 2 2 mph 1014.3mb 75f 78f
9:00pm 2 2 mph 1014.3mb 75f 78f
8:54pm 2 3 mph 1014.2mb 75f 77f
8:48pm 3 3 mph 1014.1mb 75f 77f
8:42pm 3 3 mph 1014.1mb 75f 77f
8:36pm 2 2 mph 1014.1mb 75f 78f
8:30pm 2 3 mph 1014mb 75f 78f
8:24pm 3 3 mph 1014mb 75f 78f
8:18pm 2 3 mph 1014mb 75f 78f
8:12pm 2 3 mph 1013.9mb 75f 78f
8:06pm 3 3 mph 1013.8mb 75f 78f
8:00pm 3 3 mph 1013.7mb 75f 78f
7:54pm 2 3 mph 1013.6mb 75f 78f
7:48pm 3 3 mph 1013.6mb 75f 77f
7:42pm 3 6 mph 1013.5mb 75f 78f
7:36pm 1 2 mph 1013.4mb 75f 78f
7:30pm  -  1 mph 1013.4mb 75f 78f
7:24pm  -  0 mph 1013.4mb 75f 78f
7:18pm  -  0 mph 1013.3mb 75f 78f
7:12pm  -  1 mph 1013.3mb 75f 78f
7:06pm  -  1 mph 1013.2mb 75f 78f
7:00pm 1 2 mph 1013.2mb 75f 79f
6:54pm 2 3 mph 1013.2mb 75f 79f
6:48pm 3 3 mph 1013.1mb 75f 79f
6:42pm 2 2 mph 1013mb 75f 79f
6:36pm 2 2 mph 1013.1mb 75f 80f
6:30pm 2 3 mph 1013mb 75f 80f
6:24pm 2 2 mph 1013mb 75f 80f
6:18pm 2 2 mph 1012.9mb 75f 80f
6:12pm 1 2 mph 1012.8mb 75f 80f
6:06pm 1 2 mph 1012.9mb 75f 80f
6:00pm 2 2 mph 1012.8mb 75f 80f
5:54pm 2 3 mph 1012.8mb 75f 79f
5:48pm 3 5 mph 1012.8mb 75f 79f
5:42pm 5 5 mph 1012.8mb 75f 79f
5:36pm 5 6 mph 1012.8mb 75f 80f
5:30pm 6 8 mph 1012.7mb 75f 79f
5:24pm 7 9 mph 1012.7mb 75f 79f
5:18pm 8 10 mph 1012.7mb 75f 78f
5:12pm 9 11 mph 1012.7mb 75f 78f
5:06pm 11 13 mph 1012.7mb 75f 79f
5:00pm 13 13 mph 1012.7mb 75f 79f
4:54pm 13 14 mph 1012.6mb 75f 79f
4:48pm 10 13 mph 1012.6mb 75f 79f
4:42pm 9 11 mph 1012.6mb 75f 80f
4:36pm 9 13 mph 1012.6mb 75f 79f
4:30pm 9 10 mph 1012.5mb 75f 80f
4:24pm 13 15 mph 1012.5mb 75f 81f
4:18pm 14 15 mph 1012.5mb 75f 82f
4:12pm 13 16 mph 1012.5mb 75f 82f
4:06pm 14 18 mph 1012.5mb 75f 82f
4:00pm 14 18 mph 1012.5mb 75f 82f
3:54pm 15 18 mph 1012.5mb 75f 83f
3:48pm 16 20 mph 1012.5mb 75f 83f
3:42pm 17 21 mph 1012.5mb 75f 83f
3:36pm 16 20 mph 1012.5mb 75f 83f
3:30pm 15 20 mph 1012.7mb 75f 83f
3:24pm 17 20 mph 1012.7mb 75f 83f
3:18pm 18 21 mph 1012.7mb 75f 83f
3:12pm 15 20 mph 1012.8mb 75f 82f
3:06pm 15 18 mph 1012.8mb 75f 83f
3:00pm 16 18 mph 1012.8mb 75f 82f
2:54pm 16 20 mph 1012.8mb 75f 82f
2:48pm 16 20 mph 1012.8mb 75f 82f
2:42pm 15 18 mph 1012.8mb 75f 82f
2:36pm 15 17 mph 1012.9mb 75f 81f
2:30pm 15 17 mph 1012.9mb 75f 82f
2:24pm 15 17 mph 1012.9mb 75f 82f
2:18pm 14 17 mph 1013mb 75f 82f
2:12pm 14 16 mph 1013mb 75f 82f
2:06pm 10 14 mph 1013.1mb 75f 82f
2:00pm 11 16 mph 1013.2mb 75f 82f
1:54pm 13 14 mph 1013.1mb 75f 82f
1:48pm 14 15 mph 1013.1mb 75f 82f
1:42pm 14 15 mph 1013.2mb 74f 82f
1:36pm 14 16 mph 1013.3mb 75f 82f
1:30pm 14 18 mph 1013.3mb 75f 82f
1:24pm 13 16 mph 1013.4mb 74f 81f
1:18pm 14 18 mph 1013.4mb 74f 81f
1:12pm 14 16 mph 1013.5mb 74f 81f
1:06pm 14 16 mph 1013.5mb 75f 81f
1:00pm 11 15 mph 1013.7mb 74f 80f
12:54pm 13 15 mph 1013.7mb 74f 80f
12:48pm 11 14 mph 1013.8mb 74f 80f
12:42pm 13 14 mph 1013.8mb 74f 80f
12:36pm 10 15 mph 1013.8mb 74f 79f
12:30pm 11 15 mph 1013.9mb 74f 79f
12:24pm 11 14 mph 1013.9mb 74f 79f
12:18pm 11 15 mph 1013.9mb 74f 79f
12:12pm 11 16 mph 1013.9mb 74f 79f
12:06pm 14 17 mph 1013.9mb 74f 79f
12:00pm 13 16 mph 1014mb 74f 78f
11:54am 13 17 mph 1014mb 74f 78f
11:48am 13 14 mph 1014mb 74f 78f
11:42am 11 16 mph 1014mb 74f 78f
11:36am 11 14 mph 1014mb 74f 78f
11:30am 11 14 mph 1014.1mb 74f 78f
11:24am 9 13 mph 1014mb 74f 78f
11:18am 10 13 mph 1014mb 74f 77f
11:12am 9 13 mph 1014.2mb 74f 77f
11:06am 8 10 mph 1014.3mb 74f 77f
11:00am 8 11 mph 1014.3mb 74f 77f
10:54am 9 11 mph 1014.3mb 74f 76f
10:48am 10 13 mph 1014.3mb 74f 76f
10:42am 8 13 mph 1014.3mb 74f 76f
10:36am 9 11 mph 1014.4mb 74f 75f
10:30am 9 11 mph 1014.5mb 74f 75f
10:24am 10 14 mph 1014.6mb 74f 75f
10:18am 10 13 mph 1014.6mb 74f 75f
10:12am 11 14 mph 1014.7mb 74f 74f
10:06am 11 14 mph 1014.7mb 74f 74f
10:00am 11 14 mph 1014.7mb 74f 74f
9:54am 10 14 mph 1014.6mb 74f 74f
9:48am 9 13 mph 1014.5mb 74f 74f
9:42am 10 14 mph 1014.5mb 74f 74f
9:36am 9 11 mph 1014.3mb 74f 74f
9:30am 10 14 mph 1014.3mb 74f 73f
9:24am 11 14 mph 1014.3mb 74f 73f
9:18am 10 14 mph 1014.4mb 74f 73f
9:12am 11 14 mph 1014.4mb 74f 73f
9:00am 11 15 mph 1014.1mb 74f 72f
8:54am 13 15 mph 1014mb 74f 72f
8:48am 11 16 mph 1014mb 74f 72f
8:42am 11 14 mph 1014mb 74f 72f
8:36am 11 16 mph 1013.9mb 74f 72f
8:30am 11 14 mph 1013.8mb 74f 72f
8:24am 11 15 mph 1013.8mb 74f 72f
8:18am 10 15 mph 1013.9mb 74f 72f
8:12am 10 14 mph 1013.8mb 74f 72f
8:06am 11 13 mph 1013.7mb 74f 72f
8:00am 10 13 mph 1013.7mb 74f 72f
7:54am 10 14 mph 1013.6mb 74f 72f
7:48am 11 15 mph 1013.6mb 74f 72f
7:42am 10 15 mph 1013.5mb 74f 72f
7:36am 13 16 mph 1013.3mb 74f 71f
7:30am 13 16 mph 1013.3mb 74f 71f
7:24am 13 16 mph 1013.1mb 74f 71f
7:18am 13 16 mph 1013.1mb 74f 71f
7:12am 14 17 mph 1013mb 74f 71f
7:06am 14 16 mph 1012.9mb 74f 71f
7:00am 13 17 mph 1012.6mb 74f 71f
6:54am 14 16 mph 1012.5mb 74f 71f
6:48am 13 16 mph 1012.4mb 74f 71f
6:42am 14 16 mph 1012.4mb 74f 71f
6:36am 11 15 mph 1012.4mb 74f 71f
6:30am 11 16 mph 1012.3mb 74f 71f
6:24am 11 15 mph 1012.2mb 74f 71f
6:18am 11 15 mph 1012.1mb 74f 71f
6:12am 11 16 mph 1012.1mb 74f 71f
6:06am 13 15 mph 1012mb 74f 71f
6:00am 13 15 mph 1012mb 74f 71f
5:54am 13 16 mph 1011.9mb 74f 71f
5:48am 10 16 mph 1011.8mb 74f 71f
5:42am 13 16 mph 1011.6mb 74f 71f
5:36am 13 15 mph 1011.7mb 74f 72f
5:30am 14 16 mph 1011.7mb 74f 72f
5:24am 13 17 mph 1011.6mb 74f 72f
5:18am 14 17 mph 1011.5mb 74f 72f
5:12am 14 17 mph 1011.5mb 74f 72f
5:06am 14 16 mph 1011.5mb 74f 72f
5:00am 13 17 mph 1011.4mb 74f 72f
4:54am 14 16 mph 1011.5mb 74f 72f
4:48am 11 15 mph 1011.5mb 74f 72f
4:42am 11 14 mph 1011.4mb 74f 72f
4:36am 11 15 mph 1011.3mb 74f 72f
4:30am 11 15 mph 1011.3mb 74f 72f
4:24am 11 15 mph 1011.3mb 74f 72f
4:18am 10 14 mph 1011.2mb 74f 72f
4:12am 10 13 mph 1011.3mb 74f 72f
4:06am 9 11 mph 1011.3mb 74f 73f
4:00am 10 13 mph 1011.2mb 74f 73f
3:54am 10 14 mph 1011.2mb 74f 73f
3:48am 9 13 mph 1011.3mb 74f 73f
3:42am 10 11 mph 1011.2mb 74f 73f
3:36am 9 13 mph 1011.1mb 74f 73f
3:30am 10 13 mph 1011.1mb 74f 73f
3:24am 10 14 mph 1011.1mb 74f 73f
3:18am 11 15 mph 1011.1mb 74f 73f
3:12am 13 15 mph 1011.2mb 74f 73f
3:06am 11 15 mph 1011.2mb 74f 73f
3:00am 10 14 mph 1011.2mb 74f 73f
2:54am 11 15 mph 1011.2mb 74f 73f
2:48am 11 14 mph 1011.3mb 74f -
2:42am 10 15 mph 1011.3mb 74f -
2:36am 13 16 mph 1011.3mb 74f -
2:30am 11 15 mph 1011.4mb 74f 73f
2:24am 11 15 mph 1011.4mb 74f 73f
2:18am 13 17 mph 1011.4mb 74f 73f
2:12am 14 18 mph 1011.5mb 74f 73f
2:06am 13 16 mph 1011.5mb 74f 73f
2:00am 14 18 mph 1011.5mb 74f 73f
1:54am 14 18 mph 1011.5mb 74f 73f
1:48am 14 17 mph 1011.5mb - -
1:42am 14 17 mph 1011.5mb - -
1:36am 15 20 mph 1011.4mb - -
1:30am 11 15 mph 1011.4mb 74f 73f
1:24am 11 17 mph 1011.4mb 74f 73f
1:18am 13 16 mph 1011.4mb 74f 73f
1:12am 13 15 mph 1011.4mb 74f 72f
1:06am 11 14 mph 1011.3mb 74f 73f
1:00am 11 15 mph 1011.3mb 74f 73f
12:54am 13 15 mph 1011.4mb 74f 73f
12:48am 11 16 mph 1011.3mb 74f 73f
12:42am 13 16 mph 1011.3mb 74f 73f
12:36am 15 17 mph 1011.2mb 74f 73f
12:30am 13 16 mph 1011.1mb 74f 73f
12:24am 11 16 mph 1011.1mb 74f 73f
12:18am 13 15 mph 1011.2mb 74f 73f
12:12am 13 16 mph 1011.1mb 74f 73f
12:06am 11 14 mph 1011.1mb 74f 73f
12:00am 10 14 mph 1011.1mb 74f 73f
Tue 09/19 11:54pm 10 15 mph 1011.1mb 74f 73f
11:48pm 11 17 mph 1011.1mb 74f 73f
11:42pm 13 17 mph 1011.1mb 74f 73f
11:36pm 11 17 mph 1011.2mb 74f 73f
11:30pm 13 16 mph 1011.3mb 74f 73f
11:24pm 13 16 mph 1011.3mb 74f 72f
11:18pm 13 15 mph 1011.4mb 74f 73f
11:12pm 11 16 mph 1011.5mb 74f 72f
11:06pm 13 16 mph 1011.5mb 74f 72f
11:00pm 14 16 mph 1011.5mb 74f 73f
10:54pm 11 16 mph 1011.5mb 74f 73f
10:48pm 13 16 mph 1011.5mb 74f 73f
10:42pm 13 17 mph 1011.5mb 74f 73f
10:36pm 14 18 mph 1011.4mb 74f 73f
10:30pm 15 17 mph 1011.4mb 74f 73f
10:24pm 15 18 mph 1011.3mb 74f 73f
10:18pm 15 21 mph 1011.3mb 74f 73f
10:12pm 15 20 mph 1011.3mb 74f 73f
10:06pm 16 21 mph 1011.2mb 74f 73f
10:00pm 20 23 mph 1011.2mb 74f 73f
9:54pm 20 25 mph 1011.1mb 74f 73f
9:48pm 23 26 mph 1010.9mb 74f 73f
9:42pm 23 26 mph 1010.8mb 75f 73f
9:36pm 23 28 mph 1010.6mb 75f 73f
9:30pm 23 25 mph 1010.7mb 75f 72f
9:24pm 22 30 mph 1010.8mb 75f 72f
9:18pm 29 32 mph 1010.7mb 75f 72f
9:12pm 28 36 mph 1010.6mb 75f 73f
9:06pm 26 29 mph 1010.7mb 75f 74f
9:00pm 26 29 mph 1010.6mb 75f 74f
8:54pm 22 26 mph 1010.5mb 75f 74f
8:48pm 22 24 mph 1010.7mb 75f 74f
8:42pm 22 26 mph 1010.7mb 75f 74f
8:36pm 22 25 mph 1010.6mb 75f 74f
8:30pm 23 31 mph 1010.5mb 75f 74f
8:24pm 23 29 mph 1010.4mb 75f 74f
8:18pm 22 26 mph 1010.4mb 75f 74f
8:12pm 24 29 mph 1010.3mb 75f 74f
8:06pm 26 32 mph 1010.1mb 75f 74f
8:00pm 28 32 mph 1009.9mb 75f 74f
7:54pm 26 32 mph 1009.9mb 75f 74f
7:48pm 28 33 mph 1009.9mb 75f 74f
7:42pm 28 33 mph 1009.7mb 75f 74f
7:36pm 26 32 mph 1009.8mb 75f 74f
7:30pm 22 28 mph 1009.8mb 75f 74f
7:24pm 21 25 mph 1009.9mb 75f 73f
7:18pm 18 23 mph 1010mb 75f 73f
7:12pm 22 25 mph 1009.9mb 75f 73f
7:06pm 22 26 mph 1009.9mb 75f 73f
7:00pm 23 28 mph 1009.8mb 75f 73f
6:54pm 22 28 mph 1009.8mb 75f 73f
6:48pm 24 31 mph 1009.7mb 75f 73f
6:42pm 24 29 mph 1009.7mb 75f 73f
6:36pm 25 30 mph 1009.6mb 75f 73f
6:30pm 24 30 mph 1009.6mb 75f 73f
6:18pm 24 30 mph 1009.7mb 75f 73f
6:12pm 24 30 mph 1009.7mb 75f 73f
6:06pm 24 29 mph 1009.6mb 75f 73f
5:54pm 26 33 mph 1009.6mb 75f 73f
5:48pm 23 30 mph 1009.6mb 75f 72f
5:42pm 24 31 mph 1009.7mb 75f 72f
5:36pm 25 36 mph 1009.7mb 75f 72f
5:30pm 30 37 mph 1009.5mb 75f 72f
5:24pm 29 36 mph 1009.5mb 75f 72f
5:18pm 30 37 mph 1009.5mb 75f 72f
5:12pm 23 30 mph 1009.7mb 75f 72f
5:06pm 25 29 mph 1009.6mb 75f 72f
5:00pm 28 33 mph 1009.6mb 75f 72f
4:54pm 26 31 mph 1009.6mb 75f 72f
4:48pm 25 31 mph 1009.4mb 75f 73f
4:42pm 25 32 mph 1009.4mb 75f 73f
4:36pm 31 37 mph 1009.3mb 75f 73f
4:30pm 29 33 mph 1009.2mb 75f 74f
4:24pm 25 28 mph 1009.3mb 75f 74f
4:18pm 23 29 mph 1009.3mb 75f 74f
4:12pm 25 32 mph 1009.4mb 75f 74f
4:06pm 28 37 mph 1009.1mb 75f 74f
4:00pm 30 38 mph 1009.1mb 75f 73f
3:54pm 29 37 mph 1009.1mb 75f 73f
3:48pm 25 31 mph 1009.2mb 75f 73f
3:42pm 25 32 mph 1009.2mb 75f 72f
3:36pm 26 34 mph 1009.1mb 75f 72f
3:30pm 25 31 mph 1009.2mb 75f 72f
3:24pm 26 40 mph 1009.1mb 75f 72f
3:18pm 26 32 mph 1009.2mb 75f 72f
3:12pm 29 34 mph 1009.1mb 75f 71f
3:06pm 25 33 mph 1009.1mb 75f 72f
3:00pm 25 36 mph 1009.1mb 75f 72f
2:54pm 26 34 mph 1009.1mb 75f 72f
2:48pm 25 31 mph 1009.2mb 75f 72f
2:42pm 26 33 mph 1009.2mb 75f 72f
2:36pm 26 31 mph 1009.2mb 75f 72f
2:30pm 26 33 mph 1009.3mb 75f 72f
2:24pm 23 31 mph 1009.2mb 75f 72f
2:18pm 25 30 mph 1009.2mb 75f 72f
2:12pm 23 30 mph 1009.3mb 75f 72f
2:06pm 23 29 mph 1009.1mb 75f 72f
2:00pm 23 29 mph 1009.3mb 75f 72f
1:54pm 25 30 mph 1009.3mb 75f 72f
1:48pm 25 31 mph 1009.4mb 75f 71f
1:42pm 25 31 mph 1009.3mb 75f 71f
1:36pm 26 32 mph 1009.3mb 75f 72f
1:30pm 28 32 mph 1009.2mb 75f 72f
1:24pm 26 33 mph 1009.3mb 75f 72f
1:18pm 25 31 mph 1009.2mb 75f 72f
1:12pm 24 30 mph 1009.3mb 75f 72f
1:06pm 25 30 mph 1009.3mb 75f 72f
1:00pm 23 30 mph 1009.2mb 75f 72f
12:54pm 24 30 mph 1009.3mb 75f 72f
12:48pm 23 26 mph 1009.3mb 75f 71f
12:42pm 22 31 mph 1009.4mb 75f 71f
12:36pm 25 30 mph 1009.5mb 75f 71f
12:30pm 24 31 mph 1009.5mb 75f 72f
12:24pm 25 29 mph 1009.4mb 75f 72f
12:18pm 24 29 mph 1009.3mb 75f 72f
12:12pm 22 29 mph 1009.4mb 75f 72f
12:06pm 23 30 mph 1009.4mb 75f 72f
12:00pm 23 28 mph 1009.4mb 75f 72f
11:54am 23 26 mph 1009.5mb 75f 72f
11:48am 22 30 mph 1009.5mb 75f 72f
11:42am 26 39 mph 1009.4mb 75f 72f
11:36am 21 26 mph 1009.4mb 75f 72f
11:30am 21 26 mph 1009.6mb 75f 72f
11:24am 22 32 mph 1009.5mb 75f 72f
11:18am 23 31 mph 1009.4mb 75f 72f
11:12am 24 32 mph 1009.4mb 75f 72f
11:06am 23 32 mph 1009.4mb 75f 72f
11:00am 26 38 mph 1009.2mb 75f 72f
10:54am 36 44 mph 1008.9mb 75f 71f
10:48am 34 41 mph 1009.1mb 75f 72f
10:42am 36 41 mph 1009.1mb 75f 72f
10:36am 32 37 mph 1009mb 75f 72f
10:30am 30 36 mph 1009.3mb 75f 71f
10:24am 30 39 mph 1009.3mb 75f 71f
10:18am 36 40 mph 1009.2mb 75f 71f
10:12am 30 37 mph 1009.4mb 75f 71f
10:06am 30 33 mph 1009.3mb 75f 71f
10:00am 23 32 mph 1009.5mb 75f 70f
9:54am 28 33 mph 1009.3mb 75f 71f
9:48am 25 33 mph 1009.2mb 75f 71f
9:42am 33 40 mph 1009mb 75f 70f
9:36am 31 36 mph 1008.9mb 75f 70f
9:30am 26 32 mph 1009mb 75f 70f
9:24am 33 38 mph 1009mb 75f 70f
9:18am 25 31 mph 1009.1mb 75f 70f
9:06am 33 37 mph 1009mb 75f 69f
9:00am 28 36 mph 1009.1mb 75f 70f
8:54am 29 39 mph 1009mb 75f 70f
8:48am 38 44 mph 1008.6mb 75f 69f
8:42am 32 37 mph 1008.7mb 75f 70f
8:36am 31 37 mph 1008.7mb 75f 70f
8:30am 30 37 mph 1008.6mb 75f 69f
8:24am 26 41 mph 1008.7mb 75f 71f
8:18am 32 38 mph 1008.8mb 75f 71f
8:12am 32 39 mph 1008.6mb 75f 70f
8:06am 32 39 mph 1008.6mb 75f 71f
8:00am 28 38 mph 1008.6mb 75f 71f
7:54am 33 40 mph 1008.3mb 75f 71f
7:48am 33 45 mph 1008.5mb 75f 71f
7:42am 36 45 mph 1008.5mb 75f 71f
7:36am 33 44 mph 1008.5mb 75f 71f
7:30am 32 41 mph 1008.5mb 75f 71f
7:24am 33 43 mph 1008.3mb 75f 70f
7:18am 32 43 mph 1008.4mb 75f 70f
7:12am 36 44 mph 1008.4mb 75f 69f
7:06am 31 45 mph 1008.4mb 75f 70f
7:00am 33 43 mph 1008.3mb 75f 71f
6:54am 33 46 mph 1008.4mb 75f 71f
6:48am 38 44 mph 1008.4mb 75f 71f
6:42am 36 40 mph 1008.4mb 75f 71f
6:36am 31 40 mph 1008.4mb 75f 71f
6:30am 32 41 mph 1008mb 75f 72f
6:24am 33 39 mph 1007.9mb 75f 74f
6:18am 33 41 mph 1007.8mb 75f 74f
6:12am 32 38 mph 1008mb 75f 73f
6:06am 33 40 mph 1008mb 75f 73f
6:00am 33 39 mph 1007.9mb 75f 73f
5:54am 30 39 mph 1007.7mb 75f 74f
5:48am 31 38 mph 1007.7mb 75f 74f
5:42am 34 38 mph 1007.7mb 75f 74f
5:36am 33 40 mph 1007.5mb 75f 74f
5:30am 33 38 mph 1007.6mb 75f 74f
5:24am 33 41 mph 1007.7mb 75f 74f
5:18am 32 38 mph 1007.6mb 75f 74f
5:12am 33 40 mph 1007.7mb 75f 74f
5:06am 30 38 mph 1007.9mb 75f 74f
5:00am 33 39 mph 1007.7mb 75f 74f
4:54am 31 38 mph 1007.7mb 75f 74f
4:48am 30 38 mph 1007.7mb 75f 74f
4:42am 31 37 mph 1007.7mb 75f 74f
4:36am 31 37 mph 1007.7mb 75f 74f
4:30am 31 39 mph 1007.8mb 75f 74f
4:24am 32 38 mph 1007.8mb 75f 74f
4:18am 30 34 mph 1007.8mb 75f 74f
4:12am 30 37 mph 1007.8mb 75f 74f
4:06am 29 38 mph 1007.8mb 75f 74f
4:00am 30 36 mph 1007.8mb 75f 74f
3:54am 31 34 mph 1007.9mb 75f 74f
3:48am 30 36 mph 1007.7mb 75f 74f
3:42am 31 34 mph 1007.8mb 75f 74f
3:36am 33 37 mph 1007.9mb 75f 74f
3:30am 30 37 mph 1008mb 75f 74f
3:24am 33 37 mph 1008.1mb 75f 74f
3:18am 32 37 mph 1008.3mb 75f 74f
3:12am 33 40 mph 1008.3mb 75f 74f
3:06am 33 37 mph 1008.5mb 75f 74f
3:00am 32 38 mph 1008.5mb 75f 74f
2:54am 36 40 mph 1008.4mb 75f 74f
2:48am 32 37 mph 1008.5mb 75f -
2:42am 32 38 mph 1008.6mb 75f -
2:36am 30 38 mph 1008.6mb 75f -
2:30am 32 37 mph 1008.8mb 75f 74f
2:24am 33 38 mph 1008.8mb 76f 74f
2:18am 31 38 mph 1009.1mb 76f 74f
2:12am 32 39 mph 1008.9mb 76f 74f
2:06am 33 39 mph 1009mb 76f 74f
2:00am 33 41 mph 1009.1mb 76f 74f
1:54am 33 40 mph 1009.2mb 76f 74f
1:48am 32 38 mph 1009.2mb 76f 74f
1:42am 31 39 mph 1009.3mb 76f 74f
1:36am 33 39 mph 1009.3mb 76f 74f
1:30am 33 39 mph 1009.4mb 76f 74f
1:24am 32 38 mph 1009.4mb 76f 74f
1:18am 30 41 mph 1009.6mb 76f 74f
1:12am 33 38 mph 1009.5mb 76f 74f
1:06am 31 38 mph 1009.5mb 76f 74f
1:00am 32 38 mph 1009.5mb 76f 74f
12:54am 32 40 mph 1009.5mb 76f 74f
12:48am 32 39 mph 1009.5mb 76f 74f
12:42am 34 39 mph 1009.4mb 76f 74f
12:36am 32 40 mph 1009.5mb 76f 74f
12:30am 30 38 mph 1009.7mb 76f 74f
12:24am 34 40 mph 1009.7mb 76f 74f
12:18am 34 39 mph 1009.6mb 76f 74f
12:12am 33 39 mph 1009.9mb 76f 74f
12:06am 36 39 mph 1010mb 76f 74f
12:00am 34 39 mph 1010.1mb 76f 74f
Mon 09/18 11:54pm 37 43 mph 1010.1mb 76f 74f
11:48pm 32 40 mph 1010.3mb 76f 74f
11:36pm 31 40 mph 1010.6mb 76f 74f
11:30pm 33 40 mph 1010.5mb 76f 74f
11:24pm 32 38 mph 1010.7mb 76f 74f
11:18pm 34 39 mph 1010.8mb 76f 74f
11:12pm 32 39 mph 1010.7mb 76f 74f
11:06pm 33 37 mph 1010.7mb 76f 74f
11:00pm 32 39 mph 1010.8mb 76f 74f
10:54pm 32 39 mph 1010.8mb 76f 74f
10:48pm 36 39 mph 1010.8mb 76f 74f
10:42pm 29 34 mph 1011mb 76f 74f
10:36pm 31 38 mph 1011.1mb 76f 74f
10:30pm 32 37 mph 1011.1mb 76f 74f
10:24pm 33 39 mph 1011mb 76f 74f
10:18pm 30 36 mph 1011.1mb 76f 74f
10:12pm 29 33 mph 1011.2mb 76f 74f
10:06pm 29 36 mph 1011.1mb 76f 74f
10:00pm 26 32 mph 1011.1mb 76f 74f
9:54pm 28 36 mph 1011.1mb 76f 74f
9:48pm 31 37 mph 1011.1mb 76f 74f
9:42pm 32 36 mph 1010.9mb 76f 74f
9:36pm 30 36 mph 1011mb 76f 74f
9:30pm 30 36 mph 1010.8mb 76f 74f
9:24pm 30 37 mph 1010.9mb 76f 74f
9:18pm 28 34 mph 1011.1mb 76f 74f
9:12pm 29 34 mph 1011.1mb 76f 74f
9:06pm 29 33 mph 1011.3mb 76f 74f
9:00pm 25 31 mph 1011.5mb 76f 74f
8:54pm 26 31 mph 1011.4mb 76f 74f
8:48pm 25 31 mph 1011.5mb 76f 74f
8:42pm 26 31 mph 1011.5mb 76f 74f
8:36pm 25 30 mph 1011.6mb 76f 74f
8:30pm 26 33 mph 1011.7mb 76f 74f
8:24pm 25 33 mph 1011.6mb 76f 74f
8:18pm 29 33 mph 1011.4mb 76f 74f
8:12pm 25 31 mph 1011.6mb 76f 74f
8:06pm 26 31 mph 1011.6mb 76f 74f
8:00pm 26 31 mph 1011.7mb 76f 74f
7:54pm 26 31 mph 1011.6mb 76f 74f
7:48pm 25 36 mph - - -
7:42pm 25 31 mph - - -
7:36pm 24 31 mph - - -
7:30pm 25 34 mph 1011.7mb 76f 74f
7:24pm 30 37 mph 1011.5mb 76f 74f
7:18pm 25 32 mph 1011.6mb 76f 74f
7:12pm 25 33 mph 1011.6mb 76f 74f
7:06pm 24 31 mph 1011.7mb 76f 74f
7:00pm 25 33 mph 1011.7mb 76f 74f
6:54pm 23 31 mph 1011.6mb 76f 74f
6:48pm 25 31 mph 1011.6mb 76f 74f
6:42pm 26 32 mph 1011.6mb 76f 74f
6:36pm 24 31 mph 1011.6mb 76f 74f
6:30pm 24 34 mph 1011.6mb 76f 74f
6:24pm 28 36 mph 1011.6mb 76f 74f
6:18pm 25 33 mph 1011.5mb 76f 74f
6:12pm 29 38 mph 1011.5mb 76f 74f
6:06pm 31 36 mph 1011.5mb 76f 74f
6:00pm 30 36 mph 1011.5mb 76f 74f
5:54pm 26 31 mph 1011.6mb 76f 74f
5:48pm 26 33 mph 1011.6mb 76f 74f
5:42pm 26 33 mph 1011.6mb 76f 73f
5:36pm 25 31 mph 1011.6mb 76f 74f
5:30pm 28 33 mph 1011.5mb 76f 73f
5:24pm 25 33 mph 1011.5mb 76f 74f
5:18pm 25 31 mph 1011.5mb 76f 74f
5:12pm 25 29 mph 1011.6mb 76f 74f
5:06pm 21 26 mph 1011.7mb 76f 74f
5:00pm 23 32 mph 1011.6mb 76f 74f
4:54pm 23 25 mph 1011.7mb 76f 74f
4:48pm 25 28 mph 1011.8mb 76f 74f
4:42pm 25 29 mph 1011.9mb 76f 73f
4:36pm 23 31 mph 1012mb 76f 74f
4:30pm 24 31 mph 1012mb 76f 74f
4:24pm 23 29 mph 1012.1mb 76f 74f
4:18pm 24 29 mph 1012mb 76f 74f
4:12pm 24 28 mph 1012.2mb 76f 74f
4:06pm 25 30 mph 1012.1mb 76f 74f
4:00pm 22 25 mph 1012mb 76f 74f
3:54pm 23 28 mph 1012mb 76f 74f
3:48pm 23 28 mph 1012mb 76f 74f
3:42pm 22 26 mph 1012.1mb 76f 74f
3:36pm 21 26 mph 1012.1mb 76f 74f
3:30pm 22 26 mph 1012.1mb 76f 74f
3:24pm 23 28 mph 1012.1mb 76f 74f
3:18pm 23 28 mph 1012.1mb 76f 74f
3:12pm 23 30 mph 1012.1mb 76f 74f
3:06pm 23 28 mph 1012.2mb 76f 74f
3:00pm 23 28 mph 1012.3mb 76f 74f
2:54pm 23 26 mph 1012.2mb 76f 74f
2:48pm 22 26 mph 1012.3mb 76f 74f
2:42pm 23 28 mph 1012.3mb 76f 74f
2:36pm 22 26 mph 1012.3mb 76f 74f
2:30pm 23 28 mph 1012.4mb 76f 74f
2:24pm 22 30 mph 1012.4mb 76f 74f
2:18pm 22 28 mph 1012.3mb 76f 74f
2:12pm 23 28 mph 1012.3mb 76f 74f
2:06pm 24 28 mph 1012.4mb 76f 74f
2:00pm 23 26 mph 1012.5mb 76f 74f
1:54pm 23 26 mph 1012.4mb 76f 74f
1:48pm 21 25 mph 1012.6mb 76f 74f
1:42pm 20 26 mph 1012.8mb 76f 74f
1:36pm 20 23 mph 1013mb 76f 74f
1:30pm 22 26 mph 1012.8mb 76f 74f
1:24pm 20 24 mph 1012.9mb 76f 74f
1:18pm 21 25 mph 1013mb 76f 74f
1:12pm 23 29 mph 1013.2mb 76f 74f
1:06pm 22 29 mph 1013.4mb 76f 74f
1:00pm 25 29 mph 1013.5mb 76f 74f
12:54pm 22 29 mph 1013.6mb 76f 74f
12:48pm 25 29 mph 1013.7mb 76f 74f
12:42pm 25 30 mph 1013.7mb 76f 74f
12:36pm 24 29 mph 1013.6mb 76f 74f
12:30pm 23 29 mph 1013.7mb 76f 74f
12:24pm 22 28 mph 1013.7mb 76f 74f
12:18pm 24 29 mph 1013.8mb 76f 74f
12:12pm 22 29 mph 1013.8mb 76f 74f
12:06pm 23 28 mph 1013.8mb 76f 74f
12:00pm 22 30 mph 1013.8mb 76f 74f
11:54am 24 30 mph 1013.8mb 76f 74f
11:48am 24 30 mph 1013.9mb 76f 74f
11:42am 23 30 mph 1014mb 76f 74f
11:36am 23 28 mph 1013.9mb 76f 74f
11:30am 22 26 mph 1014mb 76f 74f
11:24am 21 29 mph 1014.1mb 76f 74f
11:18am 23 28 mph 1014.1mb 76f 74f
11:12am 22 26 mph 1014.2mb 76f 74f
11:06am 21 28 mph 1014.2mb 76f 74f
11:00am 21 28 mph 1014.3mb 76f 74f
10:54am 23 28 mph 1014.2mb 76f 73f
10:48am 25 29 mph 1014.3mb 76f 74f
10:42am 24 30 mph 1014.3mb 76f 74f
10:36am 21 29 mph 1014.3mb 76f 74f
10:30am 23 29 mph 1014.2mb 76f 74f
10:24am 23 28 mph 1014.2mb 76f 74f
10:18am 25 29 mph 1014.2mb 76f 74f
10:12am 23 30 mph 1014.2mb 76f 74f
10:06am 25 31 mph 1014.3mb 76f 74f
10:00am 25 31 mph 1014.3mb 76f 74f
9:54am 29 33 mph 1014.3mb 76f 74f
9:48am 24 30 mph 1014.2mb 76f 74f
9:42am 25 31 mph 1014.2mb 76f 73f
9:36am 25 30 mph 1014.2mb 76f 73f
9:30am 26 31 mph 1014.1mb 76f 73f
9:24am 25 30 mph 1014.1mb 76f 73f
9:18am 26 31 mph 1014.2mb 76f 73f
9:12am 29 30 mph 1014.1mb 76f 73f
9:06am 28 32 mph 1014.1mb 76f 73f
9:00am 28 32 mph 1014.1mb 76f 73f
8:54am 30 32 mph 1014mb 76f 74f
8:48am 29 32 mph 1014.1mb 76f 73f
8:42am 26 30 mph 1014.1mb 76f 74f
8:36am 28 31 mph 1014mb 76f 73f
8:30am 25 29 mph 1014mb 76f 73f
8:24am 24 28 mph 1014mb 76f 73f
8:18am 26 30 mph 1014mb 76f 73f
8:12am 25 29 mph 1014mb 76f 73f
8:06am 25 30 mph 1014mb 76f 73f
8:00am 25 29 mph 1014mb 76f 73f
7:54am 25 31 mph 1014mb 76f 73f
7:48am 25 29 mph 1013.9mb 76f 74f
7:42am 26 30 mph 1013.9mb 76f 73f
7:36am 26 31 mph 1013.9mb 76f 74f
7:30am 25 30 mph 1013.8mb 76f 74f
7:24am 23 28 mph 1013.7mb 76f 74f
7:18am 26 29 mph 1013.8mb 76f 74f
7:12am 25 28 mph 1013.9mb 76f 74f
7:06am 24 29 mph 1013.8mb 76f 74f
7:00am 25 29 mph 1013.7mb 76f 74f
6:54am 21 25 mph 1013.4mb 76f 74f
6:48am 20 25 mph 1013.4mb 76f 74f
6:42am 20 26 mph 1013.5mb 76f 74f
6:36am 23 28 mph 1013.5mb 76f 73f
6:30am 18 25 mph 1013.4mb 76f 74f
6:24am 20 25 mph 1013.4mb 76f 73f
6:18am 20 25 mph 1013.5mb 76f 73f
6:12am 20 28 mph 1013.4mb 76f 73f
6:06am 18 29 mph 1013.4mb 76f 73f
6:00am 21 26 mph 1013.4mb 76f 74f
5:54am 22 28 mph 1013.6mb 76f 73f
5:48am 23 28 mph 1013.6mb 76f 73f
5:42am 21 29 mph 1013.6mb 76f 73f
5:36am 23 25 mph 1013.7mb 76f 74f
5:30am 22 26 mph 1013.7mb 76f 74f
5:24am 20 25 mph 1013.7mb 76f 74f
5:18am 18 24 mph 1013.7mb 76f 74f
5:12am 21 26 mph 1013.5mb 76f 74f
5:06am 22 24 mph 1013.5mb 76f 74f
5:00am 18 23 mph 1013.5mb 76f 74f
4:54am 22 24 mph 1013.5mb 76f 74f
4:48am 20 24 mph 1013.5mb 76f 74f
4:42am 20 24 mph 1013.5mb 76f 74f
4:36am 20 28 mph 1013.5mb 76f 74f
4:30am 23 26 mph 1013.6mb 76f 74f
4:24am 21 26 mph 1013.5mb 76f 74f
4:18am 23 29 mph 1013.6mb 76f 74f
4:12am 23 26 mph 1013.7mb 76f 74f
4:06am 21 24 mph 1013.6mb 76f 74f
4:00am 22 24 mph 1013.6mb 76f 74f
3:54am 21 24 mph 1013.6mb 76f 74f
3:48am 22 25 mph 1013.8mb 76f 74f
3:42am 23 25 mph 1013.8mb 76f 74f
3:36am 21 24 mph 1013.8mb 76f 74f
3:30am 17 24 mph 1013.8mb 76f 74f
3:24am 18 22 mph 1013.9mb 76f 74f
3:18am 20 22 mph 1014mb 76f 74f
3:12am 17 23 mph 1014mb 76f 74f
3:06am 21 24 mph 1014mb 76f 74f
3:00am 22 24 mph 1014mb 76f 74f
2:54am 23 25 mph 1014.1mb 76f 74f
2:48am 22 25 mph 1014.1mb - -
2:42am 21 24 mph 1014.2mb - -
2:36am 21 24 mph 1014.3mb - -
2:30am 22 23 mph 1014.4mb 76f 74f
2:24am 18 23 mph 1014.5mb 76f 74f
2:18am 21 24 mph 1014.6mb 76f 74f
2:12am 21 23 mph 1014.7mb 76f 74f
2:06am 21 23 mph 1014.8mb 76f 74f
2:00am 21 24 mph 1014.9mb 76f 74f
1:54am 21 25 mph 1014.9mb 76f 74f
1:48am 22 24 mph 1015.1mb 76f 73f
1:42am 20 23 mph 1015.2mb 76f 74f
1:36am 21 23 mph 1015.1mb 76f 74f
1:30am 20 22 mph 1015.2mb 76f 73f
1:24am 18 22 mph 1015.2mb 76f 74f
1:18am 20 22 mph 1015.2mb 76f 73f
1:12am 20 22 mph 1015.3mb 76f 73f
1:06am 20 22 mph 1015.4mb 76f 74f
1:00am 18 23 mph 1015.4mb 76f 74f
12:54am 20 21 mph 1015.2mb 76f 73f
12:48am 18 22 mph 1015.2mb 76f 74f
12:42am 21 23 mph 1015.2mb 76f 74f
12:36am 20 23 mph 1015.1mb 76f 74f
12:30am 20 22 mph 1015.1mb 76f 74f
12:24am 20 22 mph 1015.2mb 76f 74f
12:18am 20 21 mph 1015.3mb 76f 74f
12:12am 18 22 mph 1015.3mb 76f 74f
12:06am 20 22 mph 1015.4mb 76f 74f
12:00am 18 22 mph 1015.5mb 76f 74f
Sun 09/17 11:54pm 18 23 mph 1015.5mb 76f 74f
11:48pm 21 23 mph 1015.5mb 76f 74f
11:42pm 20 22 mph 1015.5mb 76f 74f
11:36pm 20 22 mph 1015.5mb 76f 74f
11:30pm 20 22 mph 1015.6mb 76f 74f
11:24pm 20 22 mph 1015.6mb 76f 74f
11:18pm 20 24 mph 1015.7mb 76f 74f
11:12pm 20 21 mph 1015.9mb 76f 74f
11:06pm 20 22 mph 1016mb 76f 74f
11:00pm 21 22 mph 1016mb 76f 74f
10:54pm 21 23 mph 1016.2mb 76f 74f
10:48pm 21 23 mph 1016.1mb 76f 74f
10:42pm 21 23 mph 1016.2mb 76f 74f
10:36pm 21 22 mph 1016.1mb 76f 74f
10:30pm 20 22 mph 1016.1mb 76f 74f
10:24pm 18 20 mph 1016.2mb 76f 74f
10:18pm 18 21 mph 1016.3mb 76f 74f
10:12pm 20 21 mph 1016.4mb 76f 74f
10:06pm 18 21 mph 1016.4mb 76f 74f
10:00pm 18 21 mph 1016.4mb 76f 74f
9:54pm 20 21 mph 1016.4mb 76f 74f
9:48pm 20 22 mph 1016.3mb 76f 74f
9:42pm 18 21 mph 1016.2mb 76f 74f
9:36pm 17 21 mph 1016.2mb 76f 74f
9:30pm 20 22 mph 1016.2mb 76f 74f
9:24pm 18 22 mph 1016.3mb 76f 74f
9:18pm 17 22 mph 1016.3mb 76f 74f
9:12pm 17 22 mph 1016.2mb 76f 74f
9:06pm 16 20 mph 1016.3mb 76f 74f
9:00pm 16 22 mph 1016.4mb 76f 74f
8:54pm 15 18 mph 1016.3mb 76f 74f
8:48pm 16 21 mph 1016.3mb 76f 74f
8:42pm 16 20 mph 1016.2mb 76f 74f
8:36pm 16 22 mph 1016.2mb 76f 74f
8:30pm 18 22 mph 1016.3mb 76f 74f
8:24pm 17 22 mph 1016.2mb 76f 74f
8:18pm 18 21 mph 1016.2mb 76f 74f
8:12pm 17 22 mph 1016mb 76f 74f
8:06pm 16 21 mph 1015.9mb 76f 74f
8:00pm 16 22 mph 1015.9mb 76f 74f
7:54pm 17 22 mph 1015.8mb 76f 74f
7:48pm 20 22 mph 1015.7mb 76f 74f
7:42pm 17 22 mph 1015.6mb 76f 74f
7:36pm 18 22 mph 1015.5mb 76f 74f
7:30pm 20 22 mph 1015.5mb 76f 74f
7:24pm 18 22 mph 1015.6mb 76f 74f
7:18pm 18 22 mph 1015.7mb 76f 74f
7:12pm 18 22 mph 1015.8mb 76f 74f
7:06pm 20 21 mph 1015.9mb 76f 74f
7:00pm 18 22 mph 1016mb 76f 74f